STARLINK-33813, 63585

Orbit data source: Space-Track

STARLINK-33813, 63585 is a payload satellite owned by SpaceX/Seattle (US) in LEO that was launched on Mon, 14 Apr 2025 UTC via an FALCON 9 launch vehicle from the Air Force Eastern Test Range (AFETR). Payload-class satellites include a variety of spacecraft equipped with specific instruments for various scientific and technological missions. These include communications satellites like Starlink; space stations such as the ISS; scientific satellites like the Hubble; Earth observation satellites from companies like Planet Labs, Umbra, and HawkEye 360; GPS; miniature CubeSats for education and research; and military/defense satellites.

Loading next visibility...
Identifier
63585, 2025-076S
Orbit
LEO
Country
Flag of USUS
Related business
Manufacturer
SpaceX/Seattle
Mission
Operational Commercial Communications
Bus & Motor
STARLINK V2MO, Unknown motor
Mass
575 kg wet, ~530 kg dry
Launch date (UTC)
2025-04-14 (5 months ago)
Launch vehicle
FALCON 9
Launch site
Air Force Eastern Test Range (AFETR)
Object type
Payload
Rocket body
Debris
Shape & HBR
Box + 1 Pan, 14.5 m
Radar Cross Section
41.120 m², Large (>1 m²)

Expand to show TLE details & history
Last TLE update: 23 hours ago

TLE from 23 hours ago
0 STARLINK-33813
1 63585U 25076S   25260.27358324  .00016576  00000-0  61092-3 0  9992
2 63585  42.9935 220.6293 0000322 321.2455  38.8373 15.27558028 25310
Epoch: 2025-09-17T06:33Z
TLE epoch observation values (Epoch: 2025-09-17T06:33:57.591Z)
Latitude
-0.00006°
Longitude
125.68738°
Altitude
482.718 km
Speed
7.626 km/s
True Right ascension
14h 42m 31s
True Declination
0° 00' 00"
Sunlit
Object was in daylight at epoch
Visualization orbit readout
Latitude
Unknown
Longitude
Unknown
Altitude
Unknown
Speed
Unknown
Apparent Right ascension
Unknown
Apparent Declination
Unknown
Sunlit
N/A
Visualization observer readout
Local Sidereal Time
21:57:54
Azimuth
Unknown
Elevation
Unknown
Doppler factor
Unknown
Orbital elements
Apogee altitude
485.282 km
Perigee altitude
484.84 km
Semi-major axis
6,863.198 km
Eccentricity
0.00003
Inclination
42.9935°
RAAN
220.6293°
Arg. of periapsis
321.2455°
True anomaly
38.83961°
Mean anomaly
38.8373°
Eccentric anomaly
38.83846°
Mean motion
3.81727 °/min
Orbital period
94.31 mins
BSTAR
0.00061092
Loading maneuver chart data...
Computing Atmospheric mass density...
Loading historical data...
Loading historical data...
Loading historical data...
Loading historical data...
Loading historical data...
Loading historical data...
Loading historical data...

Documentation

Showing up to 5 results
|